Regional Weather Roundup
Issued by NWS Newport/Morehead, NC

Current Version | Previous Version | Text Only | Print | Product List | Glossary Off
Versions: 1 2 3 4 5 6 7 8 9 10 11 12 13 14 15 16 17 18 19 20 21 22 23 24 25 26 27 28 29 30 31 32 33 34 35 36 37 38 39 40 41 42 43 44 45 46 47 48 49 50
534 ASUS42 KMHX 180925 RWRMHX WEATHER ROUNDUP FOR EASTERN NORTH CAROLINA NATIONAL WEATHER SERVICE NEWPORT/MOREHEAD CITY NC 500 AM EDT WED OCT 18 2017 NOTE: "FAIR" INDICATES FEW OR NO CLOUDS BELOW 12,000 FEET WITH NO SIGNIFICANT WEATHER AND/OR OBSTRUCTIONS TO VISIBILITY NCZ015>017-031-032-045>047-102-103-181000- NORTH COAST CITY SKY/WX TMP DP RH WIND PRES REMARKS EDENTON CLEAR 46 43 89 CALM 30.32S ELIZABETH CITY CLEAR 52 49 89 N8 30.32R KITTY HAWK MOSUNNY 58 48 68 CALM 30.29R MANTEO CLEAR N/A N/A N/A NE8 30.30S $$ NCZ045>047-081-094-103-104-181000- CENTRAL COAST CITY SKY/WX TMP DP RH WIND PRES REMARKS FRISCO CLEAR 61 53 75 NE9 30.26S $$ NCZ095-097-098-100-101-181000- SOUTHERN COAST CITY SKY/WX TMP DP RH WIND PRES REMARKS BEAUFORT CLEAR 52 50 93 N7 30.27S CEDAR ISLAND NOT AVBL JACKSONVILLE CLEAR 49 46 90 N8 30.29R PINEY ISLAND N/A N/A N/A N/A N9 30.27S WILMINGTON CLEAR 48 45 89 N7 30.28S $$ NCZ011>013-027>030-043-044-078>080-089-090>093-098-181000- COASTAL PLAIN CITY SKY/WX TMP DP RH WIND PRES REMARKS AHOSKIE PTCLDY 37 37 99 CALM 30.35R CLINTON CLEAR 43 43 100 CALM 30.32S ELIZABETHTOWN NOT AVBL GOLDSBORO CLEAR 44 41 87 CALM 30.30R GREENVILLE CLEAR 41 41 100 CALM 30.33R FOG HAVELOCK NOT AVBL KENANSVILLE CLEAR 39 39 100 CALM 30.31S KINSTON CLEAR 39 38 97 CALM 30.33R NEW BERN CLEAR 50 47 89 N8 30.31R RICHLANDS CLEAR 45 43 93 N5 30.30S ROCKY MOUNT CLEAR 42 42 100 CALM 30.33S WASHINGTON CLEAR 45 43 93 N6 30.32R WHITEVILLE CLEAR 46 43 88 CALM 30.29R $$ AMZ130-135-150-152-154-156-158-170-250-252-270-ANZ085-086-088-633-658-670-181000- MARINE OBSERVATIONS STATION/POSITION TIME TEMP WIND PRES WAVE SWELL AIR SEA DIR/SP/G HT/PER HT/PER (UTC) (F) (DEG/KT/KT) (MB) (FT/S) (FT/S) CHESAPEAKE LIGHT NOT AVBL 64 E VA BEACH 0850 61 67 30/ 10/ 14 1026.3 5/ 7 5/ 7 DUCK 0900 60 68 50/ 12/ 14 1025.9 2 E DUCK 0900 70 N/A 4/ 7 2/11 OREGON INLET 0900 61 65 30/ 12/ 16 1025.6 13E OREGON INLT 0848 71 N/A 5/ 8 5/ 8 HATTERAS CG 0900 62 68 40/ 12/ 16 1024.7 DIAMOND BUOY 0850 67 81 20/ 21/ 25 1023.3 7/ 8 3/10 CAPE LOOKOUT 0900 59 10/ 14/ 19 1024.3 BEAUFORT LAB 0900 56 68 360/ 10/ 12 1025.3 30 SE NEW RVR IN 0808 64 40/ 17/ 25 1023.4 30 SE NEW RVR IN NOT AVBL 27 SE WRIGHTSVLE 0808 64 77 60/ 17/ 25 1023.4 5 SE WRIGHTSVLE 0808 60 75 30/ 17/ 27 1024.5 225 S CAPE HAT 0850 74 79 50/ 17/ 21 1019.0 9/ 9 5/ 9 41 SE CHARLESTON 0910 71 80 50/ 17/ 21 1022.0 $$

USA.gov is the U.S. government's official web portal to all federal, state and local government web resources and services.